DELTA 1 DEB, 10306

Orbit data source: Space-Track

DELTA 1 DEB, 10306 is space debris in LEO originally from a launch on Thu, 14 Jul 1977 UTC launched from the Air Force Eastern Test Range (AFETR). Debris objects in space refer to the collection of defunct objects orbiting the Earth. Examples of debris include non-operational satellites, rocket bodies, and fragments generated from explosions, collisions, or faulty payload assembly.

Loading next visibility...
Identifier
10306, 1977-065DC
Orbit
LEO
Country
Flag of USUS
Related business
Manufacturer
Unknown
Mission
Spacecraft
Bus & Motor
Unknown
Mass
Unknown
Launch date (UTC)
1977-07-14 (48 years ago)
Launch vehicle
Unknown
Launch site
Air Force Eastern Test Range (AFETR)
Object type
Payload
Rocket body
Debris
Shape & HBR
Unknown shape, 0.2 m
Radar Cross Section
Small (<0.1 m²)

Expand to show TLE details & history
Last TLE update: 22 hours ago

TLE from 22 hours ago
0 DELTA 1 DEB
1 10306U 77065DC  25349.27161827  .00001810  00000-0  43054-3 0  9991
2 10306  29.1058 352.7284 0656234  52.8542 313.0164 13.67291143365841
Epoch: 2025-12-15T06:31Z
TLE epoch observation values (Epoch: 2025-12-15T06:31:07.818Z)
Latitude
-0.00003°
Longitude
170.77321°
Altitude
695.269 km
Speed
7.668 km/s
True Right ascension
23h 30m 54s
True Declination
0° 00' 00"
Sunlit
Object was in daylight at epoch
Visualization orbit readout
Latitude
Unknown
Longitude
Unknown
Altitude
Unknown
Speed
Unknown
Apparent Right ascension
Unknown
Apparent Declination
Unknown
Sunlit
N/A
Visualization observer readout
Local Sidereal Time
02:49:16
Azimuth
Unknown
Elevation
Unknown
Doppler factor
Unknown
Orbital elements
Apogee altitude
1,498.233 km
Perigee altitude
528.145 km
Semi-major axis
7,391.326 km
Eccentricity
0.06562
Inclination
29.1058°
RAAN
352.7284°
Arg. of periapsis
52.8542°
True anomaly
307.20313°
Mean anomaly
313.0164°
Eccentric anomaly
310.14212°
Mean motion
3.41554 °/min
Orbital period
105.4 mins
BSTAR
0.00043054
Loading maneuver chart data...
Computing Atmospheric mass density...

Documentation

Showing up to 5 results
|